Location: Ostrava
(49.8330°N, 18.2830°E)
Time: 03:50:09
(UTC+01:00)

NOAA 19 - Visible Passes

Search period start: 12 December 2017 00:00
Search period end: 22 December 2017 00:00
Orbit: 841 x 862 km, 99.1° (Epoch: 11 December)

Date Brightness Start Highest point End Pass type
(mag) Time Alt. Az. Time Alt. Az. Time Alt. Az.
12 Dec 7.0 03:59:04 10° NNE 04:00:55 22° NNE 04:00:55 22° NNE visible
12 Dec 6.7 05:40:48 10° N 05:42:56 17° NNW 05:42:56 17° NNW visible
13 Dec 7.2 03:47:33 10° NNE 03:49:09 20° NNE 03:49:09 20° NNE visible
13 Dec 6.7 05:29:00 10° N 05:31:11 19° NNW 05:31:11 19° NNW visible
14 Dec 7.4 03:36:03 10° NNE 03:37:23 18° NNE 03:37:23 18° NNE visible
14 Dec 6.7 05:17:16 10° N 05:19:25 20° NNW 05:19:25 20° NNW visible
15 Dec 7.6 03:24:36 10° NNE 03:25:39 16° NNE 03:25:39 16° NNE visible
15 Dec 6.7 05:05:34 10° N 05:07:40 21° NNW 05:07:40 21° NNW visible
15 Dec 8.3 16:41:40 10° W 16:42:50 11° W 16:44:01 10° WNW visible
16 Dec 7.7 03:13:11 10° NNE 03:13:53 13° NNE 03:13:53 13° NNE visible
16 Dec 6.7 04:53:54 10° N 04:55:55 22° N 04:55:55 22° N visible
16 Dec 8.1 16:28:25 10° WSW 16:31:06 14° W 16:33:47 10° WNW visible
17 Dec 7.9 03:01:48 10° NNE 03:02:09 11° NE 03:02:09 11° NE visible
17 Dec 6.8 04:42:15 10° N 04:44:10 22° N 04:44:10 22° N visible
17 Dec 7.1 06:25:59 10° NW 06:26:11 10° NW 06:26:11 10° NW visible
17 Dec 7.9 16:15:53 10° SW 16:19:23 17° W 16:22:54 10° NW visible
18 Dec 6.9 04:30:38 10° N 04:32:25 21° N 04:32:25 21° N visible
18 Dec 7.0 06:13:24 10° NNW 06:14:27 12° NW 06:14:27 12° NW visible
19 Dec 7.0 04:19:02 10° NNE 04:20:41 20° N 04:20:41 20° N visible
19 Dec 7.0 06:01:19 10° NNW 06:02:42 13° NNW 06:02:42 13° NNW visible
20 Dec 7.1 04:07:28 10° NNE 04:08:57 19° NNE 04:08:57 19° NNE visible
20 Dec 6.9 05:49:23 10° NNW 05:50:59 15° NNW 05:50:59 15° NNW visible
21 Dec 7.3 03:55:55 10° NNE 03:57:14 18° NNE 03:57:14 18° NNE visible
21 Dec 6.9 05:37:33 10° N 05:39:15 16° NNW 05:39:15 16° NNW visible
